• în Republica Moldova
  • Lista ţărilor
  • Pe 7 zile
  • Temperatura apei
  • Hartă satelitară
  • Meteo pe hartă
  • Widget-uri
  • user-avatar
    Intrare

    Meteo pe oră la Sankt Polten

    Astăzi, 18 August, Vineri

    Timp Temperatura Precipitaţii Vânt Presiune Umiditate
    00:00 +21°C° 0 mm 1 m/s 738 mmHg 74%
    01:00 +21°C° 0 mm 1 m/s 738 mmHg 76%
    02:00 +21°C° 0 mm 1 m/s 738 mmHg 77%
    03:00 +21°C° 0 mm 1 m/s 738 mmHg 78%
    04:00 +20°C° 0 mm 1 m/s 738 mmHg 79%
    05:00 +21°C° 0 mm 1 m/s 738 mmHg 77%
    06:00 +23°C° 0 mm 1 m/s 738 mmHg 74%
    07:00 +22°C° 0 mm 0 m/s 738 mmHg 71%
    08:00 +26°C° 0 mm 1 m/s 738 mmHg 64%
    09:00 +28°C° 0 mm 1 m/s 738 mmHg 56%
    10:00 +30°C° 0 mm 1 m/s 738 mmHg 49%
    11:00 +31°C° 0 mm 1 m/s 738 mmHg 46%
    12:00 +32°C° 0 mm 2 m/s 737 mmHg 43%
    13:00 +34°C° 0 mm 2 m/s 737 mmHg 41%
    14:00 +34°C° 0 mm 3 m/s 736 mmHg 41%
    15:00 +34°C° 0 mm 3 m/s 736 mmHg 41%
    16:00 +34°C° 0 mm 3 m/s 736 mmHg 41%
    17:00 +31°C° 0 mm 3 m/s 735 mmHg 49%
    18:00 +28°C° 0 mm 2 m/s 735 mmHg 57%
    19:00 +26°C° 0 mm 2 m/s 734 mmHg 65%
    20:00 +25°C° 0 mm 2 m/s 734 mmHg 67%
    21:00 +24°C° 0 mm 2 m/s 734 mmHg 68%
    22:00 +23°C° 0 mm 2 m/s 734 mmHg 70%
    23:00 +23°C° 0 mm 2 m/s 734 mmHg 71%

    Mâine, 19 August, Sâmbătă

    Timp Temperatura Precipitaţii Vânt Presiune Umiditate
    00:00 +23°C° 0 mm 2 m/s 735 mmHg 72%
    01:00 +21°C° 0 mm 2 m/s 735 mmHg 74%
    02:00 +21°C° 0,1 mm 2 m/s 735 mmHg 79%
    03:00 +20°C° 0,1 mm 2 m/s 735 mmHg 84%
    04:00 +20°C° 0,1 mm 3 m/s 736 mmHg 89%
    05:00 +20°C° 0,3 mm 3 m/s 736 mmHg 88%
    06:00 +20°C° 0,3 mm 3 m/s 736 mmHg 88%
    07:00 +20°C° 0,3 mm 3 m/s 737 mmHg 87%
    08:00 +19°C° 1,2 mm 3 m/s 737 mmHg 89%
    09:00 +19°C° 1,2 mm 3 m/s 738 mmHg 90%
    10:00 +18°C° 1,2 mm 3 m/s 738 mmHg 91%
    11:00 +18°C° 0,5 mm 3 m/s 738 mmHg 90%
    12:00 +18°C° 0,5 mm 3 m/s 738 mmHg 90%
    13:00 +18°C° 0,5 mm 2 m/s 739 mmHg 90%
    14:00 +18°C° 0,4 mm 2 m/s 739 mmHg 91%
    15:00 +17°C° 0,4 mm 2 m/s 739 mmHg 91%
    16:00 +17°C° 0,4 mm 2 m/s 739 mmHg 92%
    17:00 +17°C° 0,4 mm 2 m/s 739 mmHg 93%
    18:00 +16°C° 0,4 mm 2 m/s 739 mmHg 93%
    19:00 +16°C° 0,4 mm 2 m/s 739 mmHg 93%
    20:00 +16°C° 0,2 mm 2 m/s 739 mmHg 93%
    21:00 +15°C° 0,2 mm 2 m/s 739 mmHg 92%
    22:00 +15°C° 0,2 mm 2 m/s 739 mmHg 92%
    23:00 +15°C° 0 mm 2 m/s 739 mmHg 91%

    Poimâine, 20 August, Duminică

    Timp Temperatura Precipitaţii Vânt Presiune Umiditate
    00:00 +15°C° 0 mm 2 m/s 739 mmHg 91%
    01:00 +14°C° 0 mm 2 m/s 739 mmHg 90%
    02:00 +14°C° 0 mm 2 m/s 739 mmHg 90%
    03:00 +14°C° 0 mm 2 m/s 739 mmHg 90%
    04:00 +14°C° 0 mm 2 m/s 739 mmHg 90%
    05:00 +14°C° 0 mm 2 m/s 739 mmHg 88%
    06:00 +15°C° 0 mm 2 m/s 739 mmHg 87%
    07:00 +16°C° 0 mm 2 m/s 739 mmHg 85%
    08:00 +17°C° 0 mm 3 m/s 740 mmHg 76%
    09:00 +19°C° 0 mm 4 m/s 740 mmHg 66%
    10:00 +20°C° 0 mm 4 m/s 740 mmHg 56%
    11:00 +21°C° 0,1 mm 4 m/s 740 mmHg 54%
    12:00 +22°C° 0,1 mm 4 m/s 739 mmHg 52%
    13:00 +22°C° 0,1 mm 4 m/s 739 mmHg 49%
    14:00 +22°C° 0,2 mm 4 m/s 739 mmHg 50%
    15:00 +22°C° 0,2 mm 4 m/s 739 mmHg 52%
    16:00 +22°C° 0,2 mm 4 m/s 739 mmHg 53%
    17:00 +20°C° 0,1 mm 3 m/s 739 mmHg 60%
    18:00 +19°C° 0,1 mm 3 m/s 739 mmHg 68%
    19:00 +17°C° 0,1 mm 2 m/s 740 mmHg 75%
    20:00 +16°C° 0 mm 2 m/s 740 mmHg 79%
    21:00 +15°C° 0 mm 2 m/s 740 mmHg 82%
    22:00 +14°C° 0 mm 2 m/s 741 mmHg 85%
    23:00 +14°C° 0 mm 2 m/s 741 mmHg 85%

    21 August, Luni

    Timp Temperatura Precipitaţii Vânt Presiune Umiditate
    00:00 +13°C° 0 mm 2 m/s 740 mmHg 86%
    01:00 +13°C° 0 mm 2 m/s 740 mmHg 86%
    02:00 +13°C° 0 mm 2 m/s 740 mmHg 87%
    03:00 +12°C° 0 mm 2 m/s 740 mmHg 87%
    04:00 +12°C° 0 mm 2 m/s 740 mmHg 88%
    05:00 +13°C° 0 mm 2 m/s 740 mmHg 83%
    06:00 +14°C° 0 mm 2 m/s 740 mmHg 79%
    07:00 +14°C° 0 mm 3 m/s 741 mmHg 75%
    08:00 +17°C° 0 mm 3 m/s 741 mmHg 67%
    09:00 +18°C° 0 mm 4 m/s 741 mmHg 60%
    10:00 +20°C° 0 mm 4 m/s 741 mmHg 53%
    11:00 +20°C° 0 mm 4 m/s 740 mmHg 51%
    12:00 +21°C° 0 mm 4 m/s 740 mmHg 49%
    13:00 +22°C° 0 mm 4 m/s 740 mmHg 47%
    14:00 +22°C° 0 mm 4 m/s 740 mmHg 47%
    15:00 +22°C° 0 mm 4 m/s 739 mmHg 48%
    16:00 +22°C° 0 mm 4 m/s 739 mmHg 48%
    17:00 +20°C° 0 mm 3 m/s 739 mmHg 56%
    18:00 +18°C° 0 mm 3 m/s 739 mmHg 64%
    19:00 +17°C° 0 mm 2 m/s 740 mmHg 72%
    20:00 +16°C° 0 mm 2 m/s 740 mmHg 75%
    21:00 +15°C° 0 mm 2 m/s 740 mmHg 79%
    22:00 +14°C° 0 mm 2 m/s 740 mmHg 82%
    23:00 +13°C° 0 mm 2 m/s 740 mmHg 83%

    22 August, Marţi

    Timp Temperatura Precipitaţii Vânt Presiune Umiditate
    00:00 +13°C° 0 mm 2 m/s 740 mmHg 84%
    01:00 +13°C° 0 mm 2 m/s 740 mmHg 85%
    02:00 +12°C° 0 mm 2 m/s 740 mmHg 86%
    03:00 +12°C° 0 mm 2 m/s 740 mmHg 87%
    04:00 +12°C° 0 mm 2 m/s 740 mmHg 88%
    05:00 +13°C° 0 mm 2 m/s 740 mmHg 84%
    06:00 +14°C° 0 mm 2 m/s 740 mmHg 80%
    07:00 +15°C° 0 mm 2 m/s 740 mmHg 76%
    08:00 +17°C° 0 mm 2 m/s 740 mmHg 68%
    09:00 +19°C° 0 mm 2 m/s 740 mmHg 61%
    10:00 +21°C° 0 mm 2 m/s 740 mmHg 53%
    11:00 +23°C° 0 mm 2 m/s 740 mmHg 50%
    12:00 +24°C° 0 mm 2 m/s 740 mmHg 48%
    13:00 +24°C° 0 mm 2 m/s 739 mmHg 45%
    14:00 +24°C° 0 mm 2 m/s 739 mmHg 45%
    15:00 +24°C° 0 mm 2 m/s 739 mmHg 46%
    16:00 +24°C° 0 mm 2 m/s 738 mmHg 46%
    17:00 +21°C° 0 mm 2 m/s 738 mmHg 54%
    18:00 +20°C° 0 mm 1 m/s 738 mmHg 62%
    19:00 +18°C° 0 mm 1 m/s 738 mmHg 71%
    20:00 +16°C° 0 mm 1 m/s 738 mmHg 74%
    21:00 +15°C° 0 mm 1 m/s 739 mmHg 76%
    22:00 +14°C° 0 mm 1 m/s 739 mmHg 79%
    23:00 +14°C° 0 mm 1 m/s 739 mmHg 81%

    23 August, Miercuri

    Timp Temperatura Precipitaţii Vânt Presiune Umiditate
    00:00 +14°C° 0 mm 1 m/s 739 mmHg 82%
    01:00 +13°C° 0 mm 1 m/s 739 mmHg 83%
    02:00 +13°C° 0 mm 1 m/s 738 mmHg 84%
    03:00 +13°C° 0 mm 1 m/s 738 mmHg 85%
    04:00 +12°C° 0 mm 1 m/s 738 mmHg 85%
    05:00 +14°C° 0 mm 1 m/s 738 mmHg 81%
    06:00 +14°C° 0 mm 0 m/s 739 mmHg 77%
    07:00 +15°C° 0 mm 0 m/s 739 mmHg 72%
    08:00 +18°C° 0 mm 0 m/s 739 mmHg 63%
    09:00 +21°C° 0 mm 0 m/s 739 mmHg 54%
    10:00 +24°C° 0 mm 0 m/s 739 mmHg 45%
    11:00 +25°C° 0 mm 0 m/s 738 mmHg 42%
    12:00 +26°C° 0 mm 0 m/s 738 mmHg 38%
    13:00 +29°C° 0 mm 1 m/s 738 mmHg 34%
    14:00 +28°C° 0 mm 1 m/s 738 mmHg 34%
    15:00 +28°C° 0 mm 1 m/s 737 mmHg 34%
    16:00 +28°C° 0 mm 1 m/s 737 mmHg 34%
    17:00 +25°C° 0 mm 1 m/s 737 mmHg 42%
    18:00 +20°C° 0 mm 0 m/s 737 mmHg 49%
    19:00 +18°C° 0 mm 0 m/s 737 mmHg 56%
    20:00 +19°C° 0 mm 1 m/s 737 mmHg 58%
    21:00 +19°C° 0 mm 1 m/s 737 mmHg 59%
    22:00 +18°C° 0 mm 1 m/s 738 mmHg 60%
    23:00 +18°C° 0 mm 1 m/s 738 mmHg 61%
    Arată mai mult